(221747) = 1998 TJ38 = 2007 DR104 = 2007 EU187

Discovered at Mount Lemmon on 2007-03-15 by Mt. Lemmon Survey.

Orbit

Orbit type: Main Belt

Note: WebGL enabled browser required.

epoch2024-03-31.0
epoch JD2460400.5
perihelion date2020-11-19.00995
perihelion JD2459172.50995
argument of perihelion (°)316.59647
ascending node (°)10.37664
inclination (°)14.41059
eccentricity0.2106572
perihelion distance (AU)2.5163079
Tisserand w.r.t. Jupiter3.1
ΔV w.r.t. Earth (km/sec)10.9
semimajor axis (AU)3.1878519
mean anomaly (°)212.64319
mean daily motion (°/day)0.17316360
aphelion distance (AU)3.859
period (years)5.69
P-vector [x]0.83452091
P-vector [y]-0.41252460
P-vector [z]-0.36523734
Q-vector [x]0.54914980
Q-vector [y]0.67667854
Q-vector [z]0.49044944
absolute magnitude15.19
phase slope0.15
uncertainty0
referenceMPEC 2024-F14
observations used487
oppositions16
arc length (days)9289
first opposition used1998
last opposition used2024
residual rms (arc-secs)0.78
perturbers coarse indicatorM-v
perturbers precise indicator003Ek
first observation date used1998-10-11.0
last observation date used2024-03-17.0
computer nameMPCLINUX
JD of orbit computation2456465.498120
perihelion JD uncertainty (days)1.6409E-04
argument of perihelion uncertainty (°)4.9371E-05
ascending node uncertainty (°)4.0316E-05
inclination uncertainty (°)2.0590E-05
eccentricity uncertainty 1.9664E-07
perihelion distance uncertainty (AU)6.5478E-07
Minimum Orbit Intersection Distances (in AU)
for orbit epoch: 2460400.5, reference: E2024-GH2
Mercury2.10545
Venus1.79459
Earth1.52789
Mars1.15861
Jupiter1.64649
Saturn5.45967
Uranus14.6374
Neptune26.5628

Observations

498 total observations over interval: 1998 10 11.39701 – 2024 03 17.380883
These data are available for download (format description).

Date (UT) J2000 RA J2000 Dec Magn Location Ref
1998 10 11.39701 01 32 00.18 +15 12 59.1 18.9 R 699 – Lowell Observatory-LONEOS MPS 84437
1998 10 11.41618 01 31 58.94 +15 13 01.0   699 – Lowell Observatory-LONEOS MPS 84437
1998 10 11.44727 01 31 57.29 +15 13 01.5   699 – Lowell Observatory-LONEOS MPS 84437
1998 10 12.30505 01 31 07.55 +15 13 23.7 18.6 R 699 – Lowell Observatory-LONEOS MPS 84437
1998 10 12.32985 01 31 06.00 +15 13 23.6   699 – Lowell Observatory-LONEOS MPS 84437
1998 10 12.35468 01 31 04.52 +15 13 25.4   699 – Lowell Observatory-LONEOS MPS 84437
1998 10 29.59256 01 14 46.57 +15 09 35.5 18.9   327 – Peking Observatory, Xinglong Station MPS 208165
1998 10 29.61422 01 14 45.37 +15 09 34.0   327 – Peking Observatory, Xinglong Station MPS 208165
1998 10 29.63543 01 14 44.28 +15 09 33.8   327 – Peking Observatory, Xinglong Station MPS 208165
2002 04 09.32113 13 32 37.68 -15 06 16.8 19.6   704 – Lincoln Laboratory ETS, New Mexico MPS 213879
2002 04 09.33333 13 32 36.99 -15 06 15.5 19.4   704 – Lincoln Laboratory ETS, New Mexico MPS 213879
2002 04 09.34542 13 32 36.39 -15 06 15.8 19.8   704 – Lincoln Laboratory ETS, New Mexico MPS 213879
2004 12 11.30848 02 56 59.80 +33 11 31.1 18.6 R 703 – Catalina Sky Survey MPS 208165
2004 12 11.31866 02 56 59.28 +33 11 28.8 19.4 R 703 – Catalina Sky Survey MPS 208165
2004 12 11.32889 02 56 58.99 +33 11 26.5 18.8 R 703 – Catalina Sky Survey MPS 208165
2004 12 11.33906 02 56 58.62 +33 11 24.7 19.3 R 703 – Catalina Sky Survey MPS 208165
2007 02 23.30103 11 44 36.60 +09 54 38.0 20.8 V 691 – Steward Observatory, Kitt Peak-Spacewatch MPC 59554
2007 02 23.31867 11 44 35.84 +09 54 41.2 21.0 V 691 – Steward Observatory, Kitt Peak-Spacewatch MPC 59554
2007 02 23.33630 11 44 35.11 +09 54 44.5 20.9 V 691 – Steward Observatory, Kitt Peak-Spacewatch MPC 59554
2007 02 27.28257 11 41 47.07 +10 06 32.5   691 – Steward Observatory, Kitt Peak-Spacewatch MPS 204815
2007 02 27.30023 11 41 46.34 +10 06 35.8   691 – Steward Observatory, Kitt Peak-Spacewatch MPS 204815
2007 02 27.31786 11 41 45.54 +10 06 38.7   691 – Steward Observatory, Kitt Peak-Spacewatch MPS 204815
2007 03 15.31465 11 29 21.33 +10 51 21.5 19.7 V G96 – Mt. Lemmon Survey MPS 204815
2007 03 15.32182 11 29 20.97 +10 51 22.5 19.7 V G96 – Mt. Lemmon Survey MPS 204815
2007 03 15.32890 11 29 20.61 +10 51 23.7 19.7 V G96 – Mt. Lemmon Survey MPS 204815
2007 03 19.28096 11 26 12.84 +11 00 33.6 20.6 V G96 – Mt. Lemmon Survey MPS 204815
2007 03 19.28697 11 26 12.55 +11 00 33.9 19.8 V G96 – Mt. Lemmon Survey MPS 204815
2007 03 19.29296 11 26 12.30 +11 00 34.8 20.1 V G96 – Mt. Lemmon Survey MPS 204815
2007 03 19.29909 11 26 12.01 +11 00 36.0 20.5 V G96 – Mt. Lemmon Survey MPS 204815
2008 05 10.59175 14 39 08.20 -29 04 47.8 19.0 V E12 – Siding Spring Survey MPS 249834
2008 05 10.60397 14 39 07.48 -29 04 46.7 19.5 V E12 – Siding Spring Survey MPS 249834
2008 05 10.61626 14 39 06.69 -29 04 45.6 19.6 V E12 – Siding Spring Survey MPS 249834
2008 05 10.62854 14 39 05.97 -29 04 45.2 19.4 V E12 – Siding Spring Survey MPS 249834
2009 08 02.65383 23 38 37.64 -16 59 22.9 18.5 V E12 – Siding Spring Survey MPS 291507
2009 08 02.66477 23 38 37.46 -16 59 21.9 18.5 V E12 – Siding Spring Survey MPS 291507
2009 08 02.67984 23 38 37.10 -16 59 23.8 19.6 V E12 – Siding Spring Survey MPS 291507
2009 08 02.69085 23 38 36.85 -16 59 24.3 19.1 V E12 – Siding Spring Survey MPS 291507
2009 08 20.35419 23 28 33.81 -17 13 22.9 18.6 V 703 – Catalina Sky Survey MPS 292652
2009 08 20.36074 23 28 33.49 -17 13 23.5 18.6 V 703 – Catalina Sky Survey MPS 292652
2009 08 20.36729 23 28 33.16 -17 13 24.7 18.7 V 703 – Catalina Sky Survey MPS 292652
2009 08 20.37382 23 28 32.88 -17 13 23.7 18.6 V 703 – Catalina Sky Survey MPS 292652
2009 08 26.33949 23 23 36.45 -17 16 30.9 18.5 V 703 – Catalina Sky Survey MPS 292652
2009 08 26.34551 23 23 36.13 -17 16 31.0 18.3 V 703 – Catalina Sky Survey MPS 292652
2009 08 26.35154 23 23 35.84 -17 16 30.0 18.5 V 703 – Catalina Sky Survey MPS 292652
2009 08 26.35755 23 23 35.52 -17 16 31.2 18.2 V 703 – Catalina Sky Survey MPS 292652
2009 09 20.18414 23 00 30.90 -16 48 05.8 19.2   704 – Lincoln Laboratory ETS, New Mexico MPS 295908
2009 09 20.19615 23 00 30.30 -16 48 02.9 18.9   704 – Lincoln Laboratory ETS, New Mexico MPS 295908
2009 09 20.22023 23 00 28.95 -16 47 59.3 18.5   704 – Lincoln Laboratory ETS, New Mexico MPS 295908
2009 09 27.52500 22 54 36.39 -16 22 16.4 18.8 V E12 – Siding Spring Survey MPS 296986
2009 09 27.53881 22 54 35.82 -16 22 13.4 18.7 V E12 – Siding Spring Survey MPS 296986
2009 09 27.55286 22 54 35.13 -16 22 09.9 18.3 V E12 – Siding Spring Survey MPS 296986
2009 09 27.56672 22 54 34.48 -16 22 06.6 18.8 V E12 – Siding Spring Survey MPS 296986
2009 10 19.15698 22 44 22.56 -14 21 44.2 19.5 V 703 – Catalina Sky Survey MPS 300521
2009 10 19.16486 22 44 22.41 -14 21 38.8 19.5 V 703 – Catalina Sky Survey MPS 300521
2009 10 19.18294 22 44 22.23 -14 21 32.1 19.5 V 703 – Catalina Sky Survey MPS 300521
2009 10 20.14667 22 44 12.21 -14 14 51.1 19.3   704 – Lincoln Laboratory ETS, New Mexico MPS 300521
2009 10 20.16016 22 44 12.15 -14 14 44.9 19.5   704 – Lincoln Laboratory ETS, New Mexico MPS 300521
2009 10 20.17377 22 44 11.95 -14 14 39.6 19.5   704 – Lincoln Laboratory ETS, New Mexico MPS 300521
2009 10 20.18740 22 44 11.80 -14 14 33.7 19.4   704 – Lincoln Laboratory ETS, New Mexico MPS 300521
2009 11 16.11456 22 49 15.34 -10 34 00.9 19.9 V G96 – Mt. Lemmon Survey MPS 304682
2009 11 16.12051 22 49 15.52 -10 33 57.8 19.7 V G96 – Mt. Lemmon Survey MPS 304682
2009 11 16.12635 22 49 15.70 -10 33 54.2 20.0 V G96 – Mt. Lemmon Survey MPS 304682
2009 11 16.13216 22 49 15.88 -10 33 51.4 19.8 V G96 – Mt. Lemmon Survey MPS 304682
2009 11 18.12359 22 50 18.52 -10 15 29.7 20.0 V G96 – Mt. Lemmon Survey MPS 304682
2009 11 18.13074 22 50 18.74 -10 15 25.7 19.8 V G96 – Mt. Lemmon Survey MPS 304682
2009 11 18.13786 22 50 18.96 -10 15 21.7 19.9 V G96 – Mt. Lemmon Survey MPS 304682
2009 11 18.14491 22 50 19.17 -10 15 18.0 20.0 V G96 – Mt. Lemmon Survey MPS 304682
2012 01 30.38770 09 46 29.78 +30 07 46.8 20.7 V G96 – Mt. Lemmon Survey MPS 411372
2012 01 30.39630 09 46 29.38 +30 07 48.3 20.4 V G96 – Mt. Lemmon Survey MPS 411372
2012 01 30.40498 09 46 28.92 +30 07 49.9 20.7 V G96 – Mt. Lemmon Survey MPS 411372
2012 01 30.41366 09 46 28.48 +30 07 51.9 20.9 V G96 – Mt. Lemmon Survey MPS 411372
2012 02 28.30490 09 21 44.109 +30 57 01.68 20.8 i F51 – Pan-STARRS 1, Haleakala MPS 415904
2012 02 28.31686 09 21 43.527 +30 57 01.59 20.6 i F51 – Pan-STARRS 1, Haleakala MPS 415904
2013 03 11.36597 12 34 19.63 -01 06 49.7 20.3 V G96 – Mt. Lemmon Survey MPS 460347
2013 03 11.37552 12 34 19.27 -01 06 48.8 20.5 V G96 – Mt. Lemmon Survey MPS 460347
2013 03 11.38512 12 34 18.84 -01 06 47.0 20.1 V G96 – Mt. Lemmon Survey MPS 460347
2013 03 11.39473 12 34 18.40 -01 06 46.4 20.4 V G96 – Mt. Lemmon Survey MPS 460347
2013 03 19.48459 12 28 13.402 -00 48 35.41 20.2 w F51 – Pan-STARRS 1, Haleakala MPS 1138800
2013 03 19.49991 12 28 12.658 -00 48 33.28 20.3 w F51 – Pan-STARRS 1, Haleakala MPS 1138800
2013 03 19.51530 12 28 11.924 -00 48 31.08 20.4 w F51 – Pan-STARRS 1, Haleakala MPS 1138800
2013 04 01.23227 12 18 02.44 -00 18 43.6 20.1 V G96 – Mt. Lemmon Survey MPS 462508
2013 04 01.24125 12 18 02.01 -00 18 42.7 20.0 V G96 – Mt. Lemmon Survey MPS 462508
2013 04 01.25034 12 18 01.62 -00 18 41.4 20.0 V G96 – Mt. Lemmon Survey MPS 462508
2013 04 01.25935 12 18 01.15 -00 18 40.1 20.2 V G96 – Mt. Lemmon Survey MPS 462508
2013 04 01.30569 12 17 58.84 -00 18 33.9 20.1 V G96 – Mt. Lemmon Survey MPS 462508
2013 04 01.30995 12 17 58.66 -00 18 33.1 19.9 V G96 – Mt. Lemmon Survey MPS 462508
2013 04 01.31420 12 17 58.45 -00 18 32.5 20.0 V G96 – Mt. Lemmon Survey MPS 462508
2013 04 01.31843 12 17 58.23 -00 18 31.7 20.0 V G96 – Mt. Lemmon Survey MPS 462508
2013 04 04.27123 12 15 37.58 -00 11 59.9 20.1 V G96 – Mt. Lemmon Survey MPS 462508
2013 04 04.27638 12 15 37.33 -00 11 59.6 20.2 V G96 – Mt. Lemmon Survey MPS 462508
2013 04 04.28167 12 15 37.04 -00 11 58.5 20.1 V G96 – Mt. Lemmon Survey MPS 462508
2013 04 04.28690 12 15 36.82 -00 11 57.6 20.1 V G96 – Mt. Lemmon Survey MPS 462508
